Weather History for Rensselaer, IN

Change the Weather History Date:

Thursday, September 20, 2012

  Actual Average (KVPZ) Record (KVPZ)
Temperature  
Mean Temperature 60 °F 62 °F  
Max Temperature 73 °F 73 °F 89 °F (1998)
Min Temperature 46 °F 51 °F 42 °F (2006)
Degree Days  
Heating Degree Days 6 5  
Month to date heating degree days 48  
Since 1 July heating degree days 65  
Cooling Degree Days 0 1  
Month to date cooling degree days 55  
Year to date cooling degree days 691  
Growing Degree Days 10 (Base 50)    
Moisture  
Dew Point 39 °F    
Average Humidity 47    
Maximum Humidity 82    
Minimum Humidity 22    
Precipitation  
Precipitation 0.00 in 0.10 in 0.30 in (2000)
Month to date precipitation 2.16  
Year to date precipitation 27.70  
Sea Level Pressure  
Sea Level Pressure 29.92 in    
Wind  
Wind Speed 10 mph (WSW)    
Max Wind Speed 15 mph    
Max Gust Speed 25 mph    
Visibility 10 miles    
Events Rain    
T = Trace of Precipitation, MM = Missing Value Source: NWS Daily Summary

Daily Weather History Graph

Daily Weather History Graph

Search for Another Location

Airport:

Trip Planner

Search our weather history database for the weather conditions in past years. The results will help you decide how hot, cold, wet, or windy it might be!

Date:

Astronomy

Sep. 20, 2012 Rise Set
Actual Time 6:34 AM CDT 6:48 PM CDT
Civil Twilight 6:07 AM CDT 7:15 PM CDT
Nautical Twilight 5:35 AM CDT 7:47 PM CDT
Astronomical Twilight 5:02 AM CDT 8:20 PM CDT
Moon 11:55 AM CDT (9/20) 9:47 PM CDT (9/20)
Length of Visible Light 13h 08m
Length of Day
12h 13m
Waxing Crescent, 27% of the Moon is Illuminated
Sep 20
Waxing Crescent
Sep 22
First Quarter
Sep 29
Full
Oct 8
Last Quarter
Oct 15
New

Hourly Weather History & Observations

Time (CDT) Temp. Windchill Dew Point Humidity Pressure Visibility Wind Dir Wind Speed Gust Speed Precip Events Conditions
12:15 AM 59.0 °F - 37.4 °F 45% 29.94 in 10.0 mi South 15.0 mph 20.7 mph N/A   Clear
12:35 AM 59.0 °F - 39.2 °F 48% 29.93 in 10.0 mi South 13.8 mph 20.7 mph N/A   Clear
12:55 AM 59.0 °F - 39.2 °F 48% 29.92 in 10.0 mi South 12.7 mph 23.0 mph N/A   Clear
1:15 AM 59.0 °F - 39.2 °F 48% 29.91 in 10.0 mi South 12.7 mph 19.6 mph N/A   Clear
1:35 AM 60.8 °F - 41.0 °F 48% 29.92 in 10.0 mi SSW 12.7 mph 25.3 mph N/A   Mostly Cloudy
1:55 AM 60.8 °F - 41.0 °F 48% 29.91 in 10.0 mi SSW 15.0 mph 21.9 mph N/A   Scattered Clouds
2:15 AM 60.8 °F - 41.0 °F 48% 29.91 in 10.0 mi SSW 10.4 mph 21.9 mph N/A   Clear
2:35 AM 59.0 °F - 41.0 °F 51% 29.91 in 10.0 mi SSW 12.7 mph 17.3 mph N/A   Scattered Clouds
2:55 AM 59.0 °F - 41.0 °F 51% 29.91 in 10.0 mi SSW 12.7 mph - N/A   Scattered Clouds
3:15 AM 59.0 °F - 41.0 °F 51% 29.90 in 10.0 mi SSW 8.1 mph - N/A   Clear
3:35 AM 59.0 °F - 42.8 °F 55% 29.90 in 10.0 mi SSW 8.1 mph - N/A   Mostly Cloudy
3:55 AM 59.0 °F - 42.8 °F 55% 29.90 in 10.0 mi SSW 8.1 mph - N/A   Mostly Cloudy
4:15 AM 59.0 °F - 42.8 °F 55% 29.90 in 10.0 mi SSW 11.5 mph 16.1 mph N/A   Clear
4:35 AM 59.0 °F - 42.8 °F 55% 29.90 in 10.0 mi SSW 8.1 mph - N/A   Clear
4:55 AM 59.0 °F - 42.8 °F 55% 29.90 in 10.0 mi SSW 9.2 mph - N/A   Clear
5:15 AM 57.2 °F - 42.8 °F 59% 29.90 in 10.0 mi SW 6.9 mph - N/A   Scattered Clouds
5:35 AM 57.2 °F - 42.8 °F 59% 29.90 in 10.0 mi SW 6.9 mph - N/A   Mostly Cloudy
5:55 AM 57.2 °F - 42.8 °F 59% 29.91 in 10.0 mi SSW 10.4 mph - N/A   Mostly Cloudy
6:15 AM 57.2 °F - 44.6 °F 63% 29.91 in 10.0 mi SSW 9.2 mph - N/A   Mostly Cloudy
6:35 AM 55.4 °F - 46.4 °F 72% 29.92 in 10.0 mi SW 8.1 mph - N/A Rain Light Rain
6:55 AM 55.4 °F - 48.2 °F 77% 29.91 in 10.0 mi SSW 6.9 mph - N/A   Mostly Cloudy
7:35 AM 55.4 °F - 50.0 °F 82% 29.91 in 10.0 mi SSW 6.9 mph - N/A   Mostly Cloudy
7:55 AM 55.4 °F - 50.0 °F 82% 29.91 in 10.0 mi SW 6.9 mph - N/A   Scattered Clouds
8:15 AM 57.2 °F - 50.0 °F 77% 29.91 in 10.0 mi SW 8.1 mph - N/A   Clear
8:35 AM 59.0 °F - 50.0 °F 72% 29.92 in 10.0 mi WSW 8.1 mph - N/A   Clear
8:55 AM 60.8 °F - 50.0 °F 68% 29.92 in 10.0 mi WSW 8.1 mph - N/A   Clear
9:15 AM 62.6 °F - 50.0 °F 63% 29.92 in 10.0 mi West 5.8 mph - N/A   Clear
9:35 AM 62.6 °F - 50.0 °F 63% 29.92 in 10.0 mi West 5.8 mph - N/A   Clear
9:55 AM 64.4 °F - 50.0 °F 59% 29.92 in 10.0 mi West 6.9 mph - N/A   Clear
10:15 AM 66.2 °F - 46.4 °F 49% 29.92 in 10.0 mi West 4.6 mph - N/A   Clear
10:35 AM 68.0 °F - 42.8 °F 40% 29.92 in 10.0 mi WNW 8.1 mph - N/A   Clear
10:55 AM 68.0 °F - 42.8 °F 40% 29.92 in 10.0 mi WNW 6.9 mph - N/A   Clear
11:15 AM 68.0 °F - 41.0 °F 37% 29.93 in 10.0 mi West 8.1 mph - N/A   Clear
11:55 AM 69.8 °F - 35.6 °F 28% 29.92 in 10.0 mi West 9.2 mph - N/A   Clear
12:15 PM 69.8 °F - 33.8 °F 27% 29.92 in 10.0 mi West 12.7 mph 18.4 mph N/A   Clear
12:35 PM 71.6 °F - 35.6 °F 27% 29.92 in 10.0 mi West 10.4 mph - N/A   Clear
12:55 PM 71.6 °F - 32.0 °F 23% 29.91 in 10.0 mi WNW 6.9 mph 12.7 mph N/A   Clear
1:15 PM 71.6 °F - 33.8 °F 25% 29.91 in 10.0 mi West 6.9 mph 17.3 mph N/A   Clear
1:35 PM 71.6 °F - 32.0 °F 23% 29.91 in 10.0 mi West 12.7 mph - N/A   Clear
1:55 PM 73.4 °F - 33.8 °F 23% 29.90 in 10.0 mi West 10.4 mph 17.3 mph N/A   Clear
2:15 PM 73.4 °F - 32.0 °F 22% 29.90 in 10.0 mi West 6.9 mph - N/A   Clear
2:35 PM 71.6 °F - 32.0 °F 23% 29.89 in 10.0 mi WSW 8.1 mph - N/A   Clear
2:55 PM 73.4 °F - 32.0 °F 22% 29.89 in 10.0 mi West 5.8 mph 18.4 mph N/A   Clear
3:15 PM 71.6 °F - 30.2 °F 22% 29.89 in 10.0 mi West 9.2 mph 16.1 mph N/A   Clear
3:35 PM 71.6 °F - 32.0 °F 23% 29.89 in 10.0 mi West 11.5 mph - N/A   Clear
3:55 PM 71.6 °F - 32.0 °F 23% 29.89 in 10.0 mi WNW 9.2 mph 16.1 mph N/A   Clear
4:15 PM 69.8 °F - 32.0 °F 25% 29.89 in 10.0 mi West 9.2 mph - N/A   Clear
4:35 PM 69.8 °F - 32.0 °F 25% 29.90 in 10.0 mi West 9.2 mph - N/A   Scattered Clouds
4:55 PM 69.8 °F - 32.0 °F 25% 29.90 in 10.0 mi West 8.1 mph - N/A   Mostly Cloudy
5:15 PM 69.8 °F - 32.0 °F 25% 29.90 in 10.0 mi West 8.1 mph - N/A   Scattered Clouds
5:35 PM 68.0 °F - 33.8 °F 28% 29.90 in 10.0 mi West 5.8 mph - N/A   Clear
5:55 PM 68.0 °F - 33.8 °F 28% 29.91 in 10.0 mi West 3.5 mph - N/A   Clear
6:15 PM 66.2 °F - 35.6 °F 32% 29.91 in 10.0 mi West 4.6 mph - N/A   Clear
6:35 PM 64.4 °F - 37.4 °F 37% 29.92 in 10.0 mi West 4.6 mph - N/A   Clear
6:55 PM 62.6 °F - 37.4 °F 39% 29.92 in 10.0 mi West 5.8 mph - N/A   Clear
7:15 PM 60.8 °F - 37.4 °F 42% 29.92 in 10.0 mi West 5.8 mph - N/A   Clear
7:35 PM 59.0 °F - 37.4 °F 45% 29.92 in 10.0 mi West 3.5 mph - N/A   Clear
7:55 PM 57.2 °F - 37.4 °F 48% 29.93 in 10.0 mi WSW 3.5 mph - N/A   Clear
8:15 PM 53.6 °F - 39.2 °F 58% 29.94 in 10.0 mi SW 4.6 mph - N/A   Clear
8:35 PM 53.6 °F - 37.4 °F 54% 29.94 in 10.0 mi WSW 4.6 mph - N/A   Clear
8:55 PM 53.6 °F - 37.4 °F 54% 29.94 in 10.0 mi WSW 4.6 mph - N/A   Clear
9:15 PM 51.8 °F - 37.4 °F 58% 29.94 in 10.0 mi WSW 4.6 mph - N/A   Clear
9:35 PM 51.8 °F - 37.4 °F 58% 29.94 in 10.0 mi WSW 3.5 mph - N/A   Clear
9:55 PM 51.8 °F - 37.4 °F 58% 29.94 in 10.0 mi WSW 4.6 mph - N/A   Clear
10:15 PM 51.8 °F - 37.4 °F 58% 29.95 in 10.0 mi WSW 3.5 mph - N/A   Clear
10:35 PM 51.8 °F - 37.4 °F 58% 29.95 in 10.0 mi West 3.5 mph - N/A   Clear
10:55 PM 46.4 °F 44.3 °F 37.4 °F 71% 29.95 in 10.0 mi WSW 4.6 mph - N/A   Clear
11:35 PM 48.2 °F - 37.4 °F 66% 29.95 in 10.0 mi WSW 4.6 mph - N/A   Clear
11:55 PM 50.0 °F - 37.4 °F 62% 29.96 in 10.0 mi West 4.6 mph - N/A   Clear